N3PB Weather Reports


time (UTC)temp
C
wind
direction
speed
KPH
gust
KPH
rain 1hr
cm
rain 24hr
cm
rain mn
cm
humidity
%
barometer
mb
20260506082112 15 342 0.0 0.0 0.00 0.00 0.00 73 1011.3
20260506081609 15 342 0.0 0.0 0.00 0.00 0.00 72 1011.5
20260506081109 15 342 0.0 0.0 0.00 0.00 0.00 72 1011.5
20260506080609 15 342 0.0 0.0 0.00 0.00 0.00 71 1011.6
20260506080115 15 342 0.0 0.0 0.00 0.00 0.00 71 1011.4
20260506073109 14 355 0.0 0.0 0.00 0.00 0.00 70 1012.0
20260506072612 14 0 0.0 0.0 0.00 0.00 0.00 70 1011.8
20260506072112 14 0 0.0 0.0 0.00 0.00 0.00 70 1011.7
20260506071609 14 0 0.0 0.0 0.00 0.00 0.00 69 1011.8
20260506071112 14 234 0.0 0.0 0.00 0.00 0.00 69 1011.8
20260506070609 14 234 0.0 0.0 0.00 0.00 0.00 69 1011.8
20260506070112 14 234 0.0 0.0 0.00 0.00 0.00 69 1012.0
20260506062115 15 232 0.0 0.0 0.00 0.00 0.00 68 1012.4
20260506061612 15 232 0.0 0.0 0.00 0.00 0.00 68 1012.3
20260506061109 15 232 0.0 0.0 0.00 0.00 0.00 68 1012.4
20260506060612 15 232 0.0 0.0 0.00 0.00 0.00 68 1012.4
20260506060108 15 232 0.0 0.0 0.00 0.00 0.00 67 1012.6
20260506051108 15 232 0.0 0.0 0.00 0.00 0.00 65 1013.3
20260506050612 15 232 0.0 0.0 0.00 0.00 0.00 64 1013.3
20260506050115 15 232 0.0 0.0 0.00 0.00 0.00 64 1013.2
20260506045112 15 232 0.0 0.0 0.00 0.00 0.00 64 1013.4
20260506044609 15 232 0.0 0.0 0.00 0.00 0.00 63 1013.5
20260506044112 15 232 0.0 0.0 0.00 0.00 0.00 64 1013.6
20260506043612 15 232 0.0 0.0 0.00 0.00 0.00 63 1013.7
20260506043109 15 232 0.0 0.0 0.00 0.00 0.00 63 1013.6
20260506042616 15 232 0.0 0.0 0.00 0.00 0.00 63 1013.6
20260506042109 15 232 0.0 0.0 0.00 0.00 0.00 63 1013.6
20260506041614 15 232 0.0 0.0 0.00 0.00 0.00 61 1013.6
20260506041118 15 232 0.0 0.0 0.00 0.00 0.00 61 1013.7
20260506040618 16 232 0.0 0.0 0.00 0.00 0.00 61 1013.9
20260506040109 16 232 0.0 0.0 0.00 0.00 0.00 60 1013.8
20260506035608 16 232 0.0 0.0 0.00 0.00 0.00 60 1013.8
20260506035109 16 232 0.0 0.0 0.00 0.00 0.00 59 1013.9
20260506034608 16 232 0.0 0.0 0.00 0.00 0.00 59 1013.9
20260506034118 16 232 0.0 0.0 0.00 0.00 0.00 58 1013.9
20260506033611 16 232 0.0 0.0 0.00 0.00 0.00 58 1014.0
20260506033109 16 232 0.0 0.0 0.00 0.00 0.00 56 1014.0
20260506032612 16 232 0.0 0.0 0.00 0.00 0.00 56 1013.9
20260506032109 17 232 0.0 0.0 0.00 0.00 0.00 56 1014.0
20260506031608 17 232 0.0 0.0 0.00 0.00 0.00 55 1013.9
20260506031112 17 232 0.0 0.0 0.00 0.00 0.00 55 1014.1
20260506030614 17 232 0.0 0.0 0.00 0.00 0.00 54 1014.1
20260506030112 17 246 0.0 0.0 0.00 0.00 0.00 54 1014.2
20260506025609 17 244 0.0 0.0 0.00 0.00 0.00 54 1014.2
20260506025109 17 244 0.0 0.0 0.00 0.00 0.00 54 1014.3
20260506024611 17 244 0.0 0.0 0.00 0.00 0.00 54 1014.3
20260506024109 17 244 0.0 0.0 0.00 0.00 0.00 53 1014.2
20260506023618 17 244 0.0 0.0 0.00 0.00 0.00 53 1014.3
20260506023114 17 267 0.0 0.0 0.00 0.00 0.00 53 1014.3
20260506022609 17 267 0.0 0.0 0.00 0.00 0.00 53 1014.3
20260506022112 17 268 0.0 0.0 0.00 0.00 0.00 52 1014.4
20260506021608 17 267 0.0 0.0 0.00 0.00 0.00 52 1014.5
20260506021114 18 269 0.0 0.0 0.00 0.00 0.00 52 1014.4
20260506020608 18 269 0.0 0.0 0.00 0.00 0.00 52 1014.4
20260506020109 18 267 0.0 0.0 0.00 0.00 0.00 52 1014.3
20260506015614 18 288 0.0 0.0 0.00 0.00 0.00 51 1014.4
20260506015109 18 291 0.0 0.0 0.00 0.00 0.00 51 1014.4
20260506014611 18 271 0.0 0.0 0.00 0.00 0.00 52 1014.4
20260506014109 18 350 0.0 0.0 0.00 0.00 0.00 51 1014.4
20260506013608 18 319 0.0 0.0 0.00 0.00 0.00 51 1014.4
20260506013111 18 280 0.0 0.0 0.00 0.00 0.00 51 1014.4
20260506012609 18 279 0.0 0.0 0.00 0.00 0.00 50 1014.4
20260506012111 18 281 0.0 0.0 0.00 0.00 0.00 50 1014.4
20260506011608 18 281 0.0 0.0 0.00 0.00 0.00 50 1014.3
20260506011111 18 288 0.0 0.0 0.00 0.00 0.00 49 1014.3
20260506010609 18 281 0.0 0.0 0.00 0.00 0.00 49 1014.2
20260506010108 18 24 0.0 0.0 0.00 0.00 0.00 49 1014.3
20260506005608 18 220 0.0 0.0 0.00 0.00 0.00 49 1014.2
20260506005112 19 297 0.0 0.0 0.00 0.00 0.00 49 1014.2
20260506004608 19 191 0.0 0.0 0.00 0.00 0.00 48 1014.1
20260506004109 19 240 0.0 0.0 0.00 0.00 0.00 48 1014.2
20260506003615 19 282 0.0 0.0 0.00 0.00 0.00 47 1014.1
20260506003115 19 313 0.0 0.0 0.00 0.00 0.00 48 1014.0
20260506002611 19 309 0.0 0.0 0.00 0.00 0.00 48 1013.9
20260506002115 19 248 0.0 0.0 0.00 0.00 0.00 47 1013.9
20260506001614 20 252 0.0 0.0 0.00 0.00 0.00 46 1013.8
20260506001108 20 313 0.0 0.0 0.00 0.00 0.00 46 1013.9
20260506000612 20 280 0.0 0.0 0.00 0.00 0.00 46 1013.8
20260506000109 20 269 0.0 0.0 0.00 0.00 0.00 46 1013.7
20260505235611 20 227 0.0 0.0 0.00 0.00 0.00 46 1013.7
20260505235108 20 316 0.0 0.0 0.00 0.00 0.00 46 1013.7
20260505234609 20 295 0.0 0.0 0.00 0.00 0.00 46 1013.7
20260505234111 20 225 0.0 0.0 0.00 0.00 0.00 46 1013.6
20260505233608 20 312 0.0 0.0 0.00 0.00 0.00 46 1013.6
20260505233117 21 311 0.0 0.0 0.00 0.00 0.00 45 1013.4
20260505232611 21 15 0.0 0.0 0.00 0.00 0.00 45 1013.3
20260505232111 21 290 0.0 0.0 0.00 0.00 0.00 46 1013.2
20260505231608 21 290 0.0 0.0 0.00 0.00 0.00 44 1013.1
20260505231108 21 277 0.0 0.0 0.00 0.00 0.00 44 1013.0
20260505230612 21 283 0.0 0.0 0.00 0.00 0.00 43 1013.0
20260505230111 21 342 0.0 0.0 0.00 0.00 0.00 43 1013.0
20260505225608 22 26 0.0 0.0 0.00 0.00 0.00 44 1012.9
20260505225111 22 27 0.0 0.0 0.00 0.00 0.00 44 1012.8
20260505224609 22 48 0.0 0.0 0.00 0.00 0.00 44 1012.8
20260505224111 22 22 0.0 0.0 0.00 0.00 0.00 43 1012.8
20260505223608 22 326 0.0 0.0 0.00 0.00 0.00 42 1012.9
20260505223108 22 297 0.0 0.0 0.00 0.00 0.00 42 1013.0
20260505222614 22 355 0.0 0.0 0.00 0.00 0.00 42 1013.0
20260505222117 22 339 0.0 0.0 0.00 0.00 0.00 42 1013.0
20260505221608 22 9 0.0 0.0 0.00 0.00 0.00 41 1012.9
20260505221111 22 9 0.0 0.0 0.00 0.00 0.00 41 1012.9
20260505220608 22 22 0.0 0.0 0.00 0.00 0.00 41 1012.7
20260505220108 22 12 0.0 0.0 0.00 0.00 0.00 41 1012.8
20260505215617 22 306 0.0 0.0 0.00 0.00 0.00 40 1012.7
20260505215108 22 312 0.0 0.0 0.00 0.00 0.00 39 1012.7
20260505214614 23 338 0.0 0.0 0.00 0.00 0.00 37 1012.6
20260505214111 23 266 0.0 0.0 0.00 0.00 0.00 37 1012.7
20260505213611 23 283 0.0 0.0 0.00 0.00 0.00 37 1012.8
20260505213111 23 237 0.0 0.0 0.00 0.00 0.00 37 1012.4
20260505212612 23 304 0.0 0.0 0.00 0.00 0.00 37 1012.4
20260505212111 24 122 0.0 0.0 0.00 0.00 0.00 39 1012.3
20260505211614 23 22 0.0 0.0 0.00 0.00 0.00 39 1012.4
20260505211111 23 240 0.0 0.0 0.00 0.00 0.00 40 1012.6
20260505210608 23 44 0.0 0.0 0.00 0.00 0.00 38 1012.6
20260505210108 23 348 0.0 0.0 0.00 0.00 0.00 39 1012.6
20260505205608 23 294 0.0 0.0 0.00 0.00 0.00 43 1012.4
20260505205111 23 350 0.0 0.0 0.00 0.00 0.00 37 1012.5
20260505204608 23 284 0.0 0.0 0.00 0.00 0.00 36 1012.5
20260505204109 23 320 0.0 0.0 0.00 0.00 0.00 36 1012.7
20260505203611 23 9 0.0 0.0 0.00 0.00 0.00 37 1012.7
20260505203108 23 279 0.0 0.0 0.00 0.00 0.00 37 1012.6
20260505202608 23 318 0.0 0.0 0.00 0.00 0.00 38 1012.6
20260505202108 23 344 0.0 0.0 0.00 0.00 0.00 38 1012.5
20260505201611 23 288 0.0 0.0 0.00 0.00 0.00 37 1012.7
20260505201111 23 180 0.0 0.0 0.00 0.00 0.00 38 1012.7
20260505200614 24 269 0.0 0.0 0.00 0.00 0.00 38 1012.6
20260505200114 24 34 0.0 0.0 0.00 0.00 0.00 38 1012.8
20260505195608 24 46 0.0 0.0 0.00 0.00 0.00 41 1012.6
20260505195108 24 302 0.0 0.0 0.00 0.00 0.00 36 1012.7
20260505194608 25 286 0.0 0.0 0.00 0.00 0.00 38 1012.7
20260505194111 25 0 0.0 0.0 0.00 0.00 0.00 35 1012.8
20260505193608 25 42 0.0 0.0 0.00 0.00 0.00 38 1012.6
20260505193108 25 198 0.0 0.0 0.00 0.00 0.00 38 1012.6
20260505192608 25 283 0.0 0.0 0.00 0.00 0.00 38 1012.8
20260505192108 25 64 0.0 0.0 0.00 0.00 0.00 41 1012.7
20260505191608 25 200 0.0 0.0 0.00 0.00 0.00 39 1012.8
20260505191108 25 87 0.0 0.0 0.00 0.00 0.00 40 1012.8
20260505190611 25 31 0.0 0.0 0.00 0.00 0.00 42 1012.7
20260505190114 25 325 0.0 0.0 0.00 0.00 0.00 43 1012.8
20260505185608 25 344 0.0 0.0 0.00 0.00 0.00 37 1013.0
20260505185111 25 264 0.0 0.0 0.00 0.00 0.00 39 1012.9
20260505184608 25 71 0.0 0.0 0.00 0.00 0.00 39 1012.8
20260505184111 25 282 0.0 0.0 0.00 0.00 0.00 40 1012.9
20260505183611 25 255 0.0 0.0 0.00 0.00 0.00 37 1013.0
20260505183108 24 297 0.0 0.0 0.00 0.00 0.00 37 1012.9
20260505182617 24 275 0.0 0.0 0.00 0.00 0.00 41 1013.0
20260505182108 24 271 0.0 0.0 0.00 0.00 0.00 42 1013.2
20260505181614 23 244 0.0 0.0 0.00 0.00 0.00 40 1013.3
20260505181114 23 257 0.0 0.0 0.00 0.00 0.00 41 1013.2
20260505180608 23 300 0.0 0.0 0.00 0.00 0.00 42 1013.3
20260505180111 23 281 0.0 0.0 0.00 0.00 0.00 41 1013.2
20260505175611 23 102 0.0 0.0 0.00 0.00 0.00 43 1013.2
20260505175108 23 246 0.0 0.0 0.00 0.00 0.00 40 1013.2
20260505174614 23 248 0.0 0.0 0.00 0.00 0.00 39 1013.4
20260505174108 23 281 0.0 0.0 0.00 0.00 0.00 40 1013.5
20260505173617 23 294 0.0 0.0 0.00 0.00 0.00 42 1013.5
20260505173109 23 26 0.0 0.0 0.00 0.00 0.00 41 1013.4
20260505172611 23 304 0.0 0.0 0.00 0.00 0.00 39 1013.5
20260505172111 23 15 0.0 0.0 0.00 0.00 0.00 40 1013.8
20260505171608 23 40 0.0 0.0 0.00 0.00 0.00 40 1013.7
20260505171108 23 315 0.0 0.0 0.00 0.00 0.00 41 1013.8
20260505170611 23 304 0.0 0.0 0.00 0.00 0.00 44 1013.8
20260505170117 23 31 0.0 0.0 0.00 0.00 0.00 42 1013.9
20260505165617 23 78 0.0 0.0 0.00 0.00 0.00 42 1013.9
20260505165108 23 111 0.0 0.0 0.00 0.00 0.00 44 1013.9
20260505164614 23 303 0.0 0.0 0.00 0.00 0.00 44 1014.0
20260505164108 23 348 0.0 0.0 0.00 0.00 0.00 45 1014.0
20260505163611 23 282 0.0 0.0 0.00 0.00 0.00 44 1014.2
20260505163108 23 238 0.0 0.0 0.00 0.00 0.00 47 1014.1
20260505162617 22 314 0.0 0.0 0.00 0.00 0.00 45 1014.1
20260505162107 22 60 0.0 0.0 0.00 0.00 0.00 48 1014.1
20260505161607 22 196 0.0 0.0 0.00 0.00 0.00 48 1014.1
20260505161112 22 290 0.0 0.0 0.00 0.00 0.00 43 1014.3
20260505160614 22 263 0.0 0.0 0.00 0.00 0.00 44 1014.2
20260505160108 22 288 0.0 0.0 0.00 0.00 0.00 46 1014.2
20260505153117 22 55 0.0 0.0 0.00 0.00 0.00 52 1014.5
20260505152611 22 184 0.0 0.0 0.00 0.00 0.00 55 1014.4
20260505152111 21 215 0.0 0.0 0.00 0.00 0.00 54 1014.5
20260505151610 21 344 0.0 0.0 0.00 0.00 0.00 53 1014.5
20260505151111 21 269 0.0 0.0 0.00 0.00 0.00 53 1014.8
20260505150617 21 291 0.0 0.0 0.00 0.00 0.00 51 1014.7
20260505150114 21 336 0.0 0.0 0.00 0.00 0.00 52 1014.8
20260505140608 20 295 0.0 0.0 0.00 0.00 0.00 58 1014.3
20260505140114 19 294 0.0 0.0 0.00 0.00 0.00 58 1014.5
20260505130108 15 300 0.0 0.0 0.00 0.00 0.00 70 1014.7
20260505124607 12 299 0.0 0.0 0.00 0.00 0.00 76 1014.7
20260505124111 12 298 0.0 0.0 0.00 0.00 0.00 80 1014.8
20260505123610 11 298 0.0 0.0 0.00 0.00 0.00 83 1014.8
20260505123114 10 298 0.0 0.0 0.00 0.00 0.00 85 1014.7
20260505122616 10 298 0.0 0.0 0.00 0.00 0.00 87 1014.4
20260505122108 9 297 0.0 0.0 0.00 0.00 0.00 90 1014.5
20260505121607 8 298 0.0 0.0 0.00 0.00 0.00 89 1014.6
20260505121108 8 297 0.0 0.0 0.00 0.00 0.00 88 1014.6
20260505120607 8 297 0.0 0.0 0.00 0.00 0.00 87 1014.6
20260505120117 8 297 0.0 0.0 0.00 0.00 0.00 86 1014.6
20260505115610 8 297 0.0 0.0 0.00 0.00 0.00 86 1014.5
20260505115108 8 297 0.0 0.0 0.00 0.00 0.00 85 1014.6
20260505114608 7 297 0.0 0.0 0.00 0.00 0.00 85 1014.8
20260505114108 7 297 0.0 0.0 0.00 0.00 0.00 84 1014.8
20260505113613 7 298 0.0 0.0 0.00 0.00 0.00 84 1014.8
20260505113113 7 298 0.0 0.0 0.00 0.00 0.00 83 1014.7
20260505112617 7 297 0.0 0.0 0.00 0.00 0.00 83 1014.7
20260505112110 7 297 0.0 0.0 0.00 0.00 0.00 83 1014.8
20260505111611 8 297 0.0 0.0 0.00 0.00 0.00 82 1014.8
20260505111110 8 297 0.0 0.0 0.00 0.00 0.00 81 1014.7
20260505110608 8 297 0.0 0.0 0.00 0.00 0.00 81 1014.7
20260505110107 8 298 0.0 0.0 0.00 0.00 0.00 81 1014.8
20260505102116 8 297 0.0 0.0 0.00 0.00 0.00 81 1014.3
20260505101607 8 297 0.0 0.0 0.00 0.00 0.00 81 1014.3
20260505101116 8 297 0.0 0.0 0.00 0.00 0.00 81 1014.4
20260505100607 8 297 0.0 0.0 0.00 0.00 0.00 81 1014.4
20260505100110 8 297 0.0 0.0 0.00 0.00 0.00 81 1014.2
20260505095607 8 297 0.0 0.0 0.00 0.00 0.00 81 1014.3
20260505095113 8 297 0.0 0.0 0.00 0.00 0.00 80 1014.3
20260505094611 8 298 0.0 0.0 0.00 0.00 0.00 79 1014.5
20260505094107 8 297 0.0 0.0 0.00 0.00 0.00 78 1014.5
20260505093607 8 297 0.0 0.0 0.00 0.00 0.00 78 1014.6
20260505093107 8 297 0.0 0.0 0.00 0.00 0.00 78 1014.6
20260505092614 8 297 0.0 0.0 0.00 0.00 0.00 78 1014.7
20260505092113 9 297 0.0 0.0 0.00 0.00 0.00 77 1014.7
20260505091607 9 297 0.0 0.0 0.00 0.00 0.00 77 1014.7
20260505091111 9 297 0.0 0.0 0.00 0.00 0.00 76 1014.5
20260505090611 10 297 0.0 0.0 0.00 0.00 0.00 76 1014.5
20260505090110 10 297 0.0 0.0 0.00 0.00 0.00 76 1014.6
20260505085610 10 297 0.0 0.0 0.00 0.00 0.00 75 1014.6
20260505085113 10 297 0.0 0.0 0.00 0.00 0.00 74 1014.6
20260505084607 10 297 0.0 0.0 0.00 0.00 0.00 73 1014.7
20260505084113 10 298 0.0 0.0 0.00 0.00 0.00 72 1014.7
20260505083607 11 297 0.0 0.0 0.00 0.00 0.00 72 1014.8
20260505083110 11 297 0.0 0.0 0.00 0.00 0.00 71 1015.0
20260505082608 11 297 0.0 0.0 0.00 0.00 0.00 70 1014.8